Appleton, MN

5:47 AM CST on December 05, 2016 (GMT -0600)
Appleton Municipal

Weather History for KAQP - August, 2014

Change the Weather History Date:

Saturday, August 23, 2014

  Actual Average Record
Temperature  
Mean Temperature 73 °F -  
Max Temperature 77 °F 77 °F 91 °F (2003)
Min Temperature 69 °F 55 °F 46 °F (2004)
Cooling Degree Days 8    
Growing Degree Days 23 (Base 50)    
Moisture  
Dew Point 67 °F    
Average Humidity 84    
Maximum Humidity 88    
Minimum Humidity 69    
Precipitation  
Precipitation 0.01 in - - ()
Sea Level Pressure  
Sea Level Pressure 29.91 in    
Wind  
Wind Speed 8 mph (East)    
Max Wind Speed 21 mph    
Max Gust Speed 25 mph    
Visibility 8 miles    
Events Rain    
Averages and records for this station are not official NWS values.
T = Trace of Precipitation, MM = Missing Value Source: NWS Daily Summary

Daily Weather History Graph

Daily Weather History Graph

Search for Another Location

Airport or City:

Trip Planner

Search our weather history database for the weather conditions in past years. The results will help you decide how hot, cold, wet, or windy it might be!

Date:

Astronomy

Aug. 23, 2014 Rise Set
Actual Time 6:34 AM CDT 8:17 PM CDT
Civil Twilight 6:03 AM CDT 8:48 PM CDT
Nautical Twilight 5:25 AM CDT 9:26 PM CDT
Astronomical Twilight 4:44 AM CDT 10:07 PM CDT
Moon 4:50 AM CDT (8/23) 7:03 PM CDT (8/23)
Length of Visible Light 14h 44m
Length of Day
13h 42m
Waning Crescent, 3% of the Moon is Illuminated
Aug 23
Waning Crescent
Aug 25
New
Sep 2
First Quarter
Sep 8
Full
Sep 15
Last Quarter

Hourly Weather History & Observations

Time (CDT) Temp. Dew Point Humidity Pressure Visibility Wind Dir Wind Speed Gust Speed Precip Events Conditions
12:15 AM 73.4 °F 68.0 °F 83% 30.01 in 10.0 mi NNE 4.6 mph - N/A   Clear
12:34 AM 73.4 °F 68.0 °F 83% 30.00 in 10.0 mi NE 3.5 mph - N/A   Scattered Clouds
12:55 AM 73.4 °F 68.0 °F 83% 30.00 in 10.0 mi NE 3.5 mph - N/A   Light Drizzle
1:14 AM 73.4 °F 69.8 °F 88% 30.00 in 10.0 mi North 5.8 mph - N/A   Mostly Cloudy
1:34 AM 71.6 °F 68.0 °F 88% 29.99 in 10.0 mi NNE 4.6 mph - N/A   Scattered Clouds
1:55 AM 71.6 °F 68.0 °F 88% 29.98 in 10.0 mi North 4.6 mph - N/A   Clear
2:14 AM 71.6 °F 68.0 °F 88% 29.99 in 10.0 mi Calm Calm - N/A   Clear
2:34 AM 71.6 °F 68.0 °F 88% 29.98 in 7.0 mi NE 3.5 mph - N/A   Clear
2:54 AM 71.6 °F 66.2 °F 83% 29.97 in 7.0 mi ENE 3.5 mph - N/A   Clear
3:14 AM 71.6 °F 66.2 °F 83% 29.97 in 7.0 mi NE 3.5 mph - N/A   Scattered Clouds
3:34 AM 71.6 °F 68.0 °F 88% 29.98 in 7.0 mi NE 3.5 mph - N/A   Mostly Cloudy
4:14 AM 71.6 °F 68.0 °F 88% 29.99 in 10.0 mi Calm Calm - N/A   Mostly Cloudy
4:34 AM 71.6 °F 68.0 °F 88% 29.99 in 7.0 mi ENE 3.5 mph - N/A   Overcast
4:54 AM 71.6 °F 68.0 °F 88% 29.99 in 10.0 mi ESE 3.5 mph - N/A   Overcast
5:15 AM 71.6 °F 68.0 °F 88% 29.99 in 7.0 mi ESE 4.6 mph - N/A   Overcast
5:34 AM 71.6 °F 68.0 °F 88% 29.99 in 10.0 mi ESE 4.6 mph - N/A   Mostly Cloudy
6:14 AM 71.6 °F 66.2 °F 83% 30.00 in 10.0 mi East 4.6 mph - N/A   Scattered Clouds
6:34 AM 71.6 °F 66.2 °F 83% 30.00 in 7.0 mi ESE 5.8 mph - N/A Rain Light Rain
7:14 AM 69.8 °F 66.2 °F 88% 29.98 in 7.0 mi ESE 8.1 mph - N/A Rain Light Rain
7:34 AM 69.8 °F 66.2 °F 88% 29.96 in 5.0 mi East 6.9 mph - N/A   Mostly Cloudy
7:55 AM 69.8 °F 66.2 °F 88% 29.95 in 4.0 mi East 9.2 mph - N/A   Mostly Cloudy
8:14 AM 69.8 °F 66.2 °F 88% 29.94 in 5.0 mi ENE 8.1 mph - N/A Rain Light Rain
8:35 AM 69.8 °F 66.2 °F 88% 29.95 in 7.0 mi East 6.9 mph - 0.01 in Rain Light Rain
8:55 AM 69.8 °F 66.2 °F 88% 29.94 in 5.0 mi ENE 10.4 mph - 0.01 in   Light Drizzle
9:14 AM 69.8 °F 66.2 °F 88% 29.92 in 3.0 mi ENE 12.7 mph - N/A Rain Light Rain
9:34 AM 69.8 °F 66.2 °F 88% 29.92 in 4.0 mi ENE 11.5 mph 17.3 mph N/A   Light Drizzle
9:54 AM 69.8 °F 66.2 °F 88% 29.94 in 7.0 mi East 13.8 mph 17.3 mph N/A   Mostly Cloudy
10:14 AM 69.8 °F 66.2 °F 88% 29.95 in 10.0 mi East 11.5 mph - N/A   Overcast
10:34 AM 69.8 °F 66.2 °F 88% 29.95 in 10.0 mi East 9.2 mph - N/A Rain Light Rain
10:55 AM 69.8 °F 66.2 °F 88% 29.94 in 10.0 mi East 10.4 mph - N/A   Overcast
11:14 AM 69.8 °F 66.2 °F 88% 29.94 in 10.0 mi East 11.5 mph - N/A   Overcast
11:34 AM 69.8 °F 66.2 °F 88% 29.95 in 7.0 mi ESE 11.5 mph 16.1 mph N/A   Overcast
11:54 AM 71.6 °F 66.2 °F 83% 29.94 in 5.0 mi East 11.5 mph - N/A   Haze
12:14 PM 71.6 °F 66.2 °F 83% 29.92 in 5.0 mi East 12.7 mph - N/A   Haze
12:35 PM 71.6 °F 66.2 °F 83% 29.91 in 5.0 mi East 10.4 mph - N/A Rain Light Rain
12:55 PM 73.4 °F 66.2 °F 78% 29.91 in 7.0 mi East 9.2 mph - N/A   Overcast
1:14 PM 73.4 °F 66.2 °F 78% 29.92 in 5.0 mi ESE 11.5 mph - N/A   Haze
1:35 PM 73.4 °F 66.2 °F 78% 29.91 in 5.0 mi East 9.2 mph - N/A   Haze
1:54 PM 73.4 °F 66.2 °F 78% 29.92 in 7.0 mi ESE 10.4 mph - N/A   Overcast
2:15 PM 71.6 °F 66.2 °F 83% 29.93 in 5.0 mi ESE 8.1 mph - N/A   Haze
2:34 PM 71.6 °F 66.2 °F 83% 29.91 in 5.0 mi East 15.0 mph - N/A   Haze
2:55 PM 75.2 °F 66.2 °F 73% 29.91 in 7.0 mi East 12.7 mph - N/A   Scattered Clouds
3:15 PM 77.0 °F 66.2 °F 69% 29.89 in 10.0 mi ESE 15.0 mph 20.7 mph N/A   Scattered Clouds
3:34 PM 75.2 °F 66.2 °F 73% 29.88 in 10.0 mi East 12.7 mph 19.6 mph N/A   Scattered Clouds
3:54 PM 75.2 °F 66.2 °F 73% 29.88 in 10.0 mi East 13.8 mph 19.6 mph N/A   Mostly Cloudy
4:14 PM 75.2 °F 66.2 °F 73% 29.88 in 10.0 mi East 13.8 mph 17.3 mph N/A   Overcast
4:34 PM 75.2 °F 66.2 °F 73% 29.87 in 10.0 mi East 15.0 mph 18.4 mph N/A   Overcast
4:54 PM 75.2 °F 66.2 °F 73% 29.87 in 10.0 mi East 11.5 mph - N/A   Overcast
5:14 PM 73.4 °F 66.2 °F 78% 29.87 in 10.0 mi ESE 11.5 mph 17.3 mph N/A   Overcast
5:34 PM 73.4 °F 68.0 °F 83% 29.87 in 10.0 mi East 10.4 mph - N/A   Overcast
5:55 PM 73.4 °F 68.0 °F 83% 29.85 in 10.0 mi ESE 17.3 mph - N/A   Scattered Clouds
6:15 PM 73.4 °F 68.0 °F 83% 29.85 in 10.0 mi ESE 17.3 mph - N/A   Scattered Clouds
6:35 PM 73.4 °F 68.0 °F 83% 29.84 in 10.0 mi East 16.1 mph - N/A   Mostly Cloudy
6:54 PM 75.2 °F 68.0 °F 78% 29.82 in 10.0 mi East 17.3 mph 23.0 mph N/A   Mostly Cloudy
7:15 PM 73.4 °F 68.0 °F 83% 29.82 in 10.0 mi East 13.8 mph 20.7 mph N/A   Scattered Clouds
7:34 PM 73.4 °F 68.0 °F 83% 29.82 in 10.0 mi East 12.7 mph - N/A   Clear
7:54 PM 73.4 °F 68.0 °F 83% 29.82 in 10.0 mi ESE 11.5 mph 17.3 mph N/A   Clear
8:14 PM 73.4 °F 68.0 °F 83% 29.82 in 10.0 mi ESE 10.4 mph - N/A   Clear
8:34 PM 73.4 °F 68.0 °F 83% 29.82 in 10.0 mi ESE 9.2 mph - N/A   Clear
8:55 PM 73.4 °F 68.0 °F 83% 29.83 in 10.0 mi ESE 10.4 mph - N/A   Mostly Cloudy
9:14 PM 73.4 °F 68.0 °F 83% 29.82 in 10.0 mi ESE 12.7 mph 18.4 mph N/A   Mostly Cloudy
9:34 PM 73.4 °F 68.0 °F 83% 29.82 in 10.0 mi ESE 15.0 mph 20.7 mph N/A   Scattered Clouds
9:54 PM 73.4 °F 68.0 °F 83% 29.82 in 10.0 mi ESE 13.8 mph 19.6 mph N/A   Mostly Cloudy
10:14 PM 73.4 °F 68.0 °F 83% 29.82 in 10.0 mi ESE 15.0 mph 19.6 mph N/A   Overcast
10:34 PM 73.4 °F 68.0 °F 83% 29.82 in 10.0 mi ESE 16.1 mph 23.0 mph N/A   Scattered Clouds
10:54 PM 73.4 °F 69.8 °F 88% 29.81 in 10.0 mi ESE 13.8 mph 24.2 mph N/A   Mostly Cloudy
11:14 PM 73.4 °F 69.8 °F 88% 29.80 in 10.0 mi ESE 17.3 mph 25.3 mph N/A   Mostly Cloudy
11:34 PM 73.4 °F 69.8 °F 88% 29.79 in 10.0 mi ESE 20.7 mph 25.3 mph N/A   Mostly Cloudy
11:54 PM 73.4 °F 69.8 °F 88% 29.79 in 10.0 mi SE 13.8 mph 21.9 mph N/A   Mostly Cloudy